Content
SEND FEEDBACK

Daily
Averages
Monthly
Summary
United States of America

UNIONTOWN, WASHINGTON


Home > North America > United States > Washington
Elevation: 1349 feet     Latitude: 46 23N     Longitude: 117 01W

WEATHER
 
SELECT A DAY
Number of Records: 189,822;   Date Range: 1/1/95 - 10/23/14
 
SHARE

PRINT THIS DATA

[ ← Previous Day ]
WEATHER ALMANAC - JANUARY 4, 2013
[ Next Day → ]
[ °C ]   °F
Weather ElementAverageHighLow
Temperature34.9 °F39.9 °F (12:56 pm)21.9 °F (1:56 am)
Dewpoint20.1 °F25 °F (5:56 pm)14 °F (5:56 am)
Humidity55.7 %85 % (1:56 am)41 % (10:33 am)
Barometer30.40 in30.45 in (9:56 am)30.34 in (1:46 pm)
Wind Speed10.2 mph19.6 mph (5:56 am)
Wind Gust25.3 mph (5:56 am)
Weather ElementAverage
Visibility10 mi
Wind DirectionESE (113.1 °)

Weather ElementTotal
Precipitation---
Heating Degree Days34.1 (Base 65)
Averaged from 29 records on January 4, 2013
WEATHER CONDITIONS BREAKOUT
WIND DIRECTION BREAKOUT
WEATHER BY HOUR - JANUARY 4, 2013
[ °C ]   °F
Local TimeTemperatureDewpointHumidityBarometerVisibilityWind DirectionWind SpeedGust SpeedPrecipitationEventsConditions
1:56 AM21.9 °F18.0 °F85 %30.42 in10.0 miCalmOvercast
2:56 AM25.0 °F18.0 °F75 %30.41 in10.0 miSSE (160°)3.5 mphOvercast
3:56 AM30.0 °F16.0 °F56 %30.40 in10.0 miCalmOvercast
4:56 AM32.0 °F15.1 °F50 %30.40 in10.0 miSE (140°)11.5 mphOvercast
5:56 AM34.0 °F14.0 °F44 %30.40 in10.0 miSE (140°)19.6 mph25.3 mphOvercast
6:56 AM34.0 °F14.0 °F44 %30.41 in10.0 miSSE (150°)13.8 mph20.7 mphOvercast
7:56 AM32.0 °F17.1 °F54 %30.43 in10.0 miSSE (150°)5.8 mphOvercast
8:56 AM34.0 °F16.0 °F48 %30.43 in10.0 miSE (140°)10.4 mphOvercast
9:56 AM36.0 °F15.1 °F43 %30.45 in10.0 miSSE (150°)17.3 mphOvercast
10:33 AM37.4 °F15.8 °F41 %30.40 in10.0 miSE (140°)12.7 mphOvercast
10:56 AM37.0 °F17.1 °F44 %30.44 in10.0 miSE (140°)12.7 mphOvercast
11:56 AM39.0 °F19.0 °F45 %30.42 in10.0 miSSE (160°)13.8 mph17.3 mphOvercast
12:04 PM39.2 °F19.4 °F45 %30.37 in10.0 miSouth (170°)12.7 mphOvercast
12:40 PM39.2 °F19.4 °F45 %30.35 in10.0 miSouth (170°)12.7 mphOvercast
12:56 PM39.9 °F19.0 °F43 %30.40 in10.0 miSouth (170°)12.7 mphOvercast
1:46 PM39.2 °F23.0 °F52 %30.34 in10.0 miEast (100°)4.6 mphOvercast
1:56 PM39.0 °F23.0 °F53 %30.40 in10.0 miESE (110°)8.1 mphOvercast
2:56 PM37.9 °F24.1 °F57 %30.40 in10.0 miENE (60°)11.5 mphOvercast
3:06 PM37.4 °F24.8 °F60 %30.35 in10.0 miENE (60°)13.8 mphOvercast
3:28 PM37.4 °F24.8 °F60 %30.36 in10.0 miENE (60°)11.5 mphOvercast
3:56 PM36.0 °F24.1 °F62 %30.40 in10.0 miEast (80°)11.5 mphOvercast
4:56 PM35.1 °F24.1 °F64 %30.40 in10.0 miEast (80°)10.4 mphMostly Cloudy
5:56 PM34.0 °F25.0 °F70 %30.39 in10.0 miEast (90°)6.9 mphPartly Cloudy
6:56 PM33.1 °F25.0 °F72 %30.39 in10.0 miESE (110°)8.1 mphScattered Clouds
7:56 PM34.0 °F21.9 °F61 %30.38 in10.0 miEast (90°)5.8 mphMostly Cloudy
8:56 PM33.1 °F21.9 °F64 %30.38 in10.0 miESE (120°)11.5 mphScattered Clouds
9:56 PM34.0 °F24.1 °F67 %30.40 in10.0 miEast (100°)10.4 mphMostly Cloudy
10:56 PM36.0 °F24.1 °F62 %30.39 in10.0 miEast (90°)10.4 mphOvercast
11:56 PM36.0 °F19.0 °F50 %30.38 in10.0 miSSE (150°)12.7 mphOvercast
Hourly data recorded from KLWS, located miles away from Uniontown, Washington







STORIES FROM OUR PARTNERS